Location: Marseilles
(40.7010°N, 83.3930°W)
Time: 09:50:29
(UTC-04:00)

Cosmos 1459 Rocket - Visible Passes

Search period start: 30 September 2014 00:00
Search period end: 10 October 2014 00:00
Orbit: 937 x 1001 km, 83.0° (Epoch: 29 September)

Date Brightness Start Highest point End Pass type
(mag) Time Alt. Az. Time Alt. Az. Time Alt. Az.
30 Sep 5.8 05:27:34 10° SSE 05:33:01 32° E 05:38:26 10° NNE visible
01 Oct 4.7 05:50:11 10° SSE 05:56:20 56° E 06:02:25 10° NNE visible
02 Oct 6.8 04:32:37 10° ESE 04:35:27 13° E 04:38:16 10° NE visible
02 Oct 4.0 06:13:27 10° S 06:19:47 86° W 06:26:04 10° N visible
03 Oct 6.1 04:53:38 10° SE 04:58:32 24° E 05:03:24 10° NNE visible
03 Oct 4.2 06:37:17 10° SSW 06:43:23 50° WNW 06:49:26 10° N visible
04 Oct 5.1 05:15:55 10° SSE 05:21:47 43° E 05:27:36 10° NNE visible
04 Oct 4.8 07:01:47 10° SW 07:07:08 29° WNW 07:12:28 10° NNW visible
05 Oct 4.2 05:38:54 10° S 05:45:10 75° E 05:51:24 10° N visible
06 Oct 6.4 04:19:57 10° SE 04:24:05 19° E 04:28:12 10° NE visible
06 Oct 4.0 06:02:28 10° SSW 06:08:42 64° W 06:14:53 10° N visible
07 Oct 5.5 04:41:47 10° SSE 04:47:16 33° E 04:52:42 10° NNE visible
07 Oct 4.5 06:26:39 10° SW 06:32:23 37° WNW 06:38:05 10° N visible
08 Oct 4.5 05:04:46 11° SSE 05:10:35 58° E 05:16:39 10° NNE visible
08 Oct 5.1 06:51:35 10° WSW 06:56:13 21° WNW 07:00:51 10° NNW visible
09 Oct 6.6 03:46:40 10° ESE 03:49:40 14° E 03:52:39 10° NE visible
09 Oct 3.9 05:30:08 25° S 05:34:03 82° W 05:40:17 10° N visible
